Regional Weather Roundup
Issued by NWS

Home | Current Version | Previous Version | Graphics & Text | Print | Product List | Glossary On
Versions: 1 2 3 4 5 6 7 8 9 10 11 12 13 14 15 16 17 18 19 20 21 22 23 24 25 26 27
000
ASUS45 KPSR 201610
RWRAZ

ARIZONA HOURLY REGIONAL WEATHER ROUNDUP
NATIONAL WEATHER SERVICE PHOENIX AZ
900 AM MST FRI OCT 20 2017

NOTE: FAIR INDICATES FEW OR NO CLOUDS BELOW 12,000 FEET WITH NO
SIGNIFICANT WEATHER AND/OR OBSTRUCTIONS TO VISIBILITY.

AZZ001>003-036-201700-
NORTHWEST ARIZONA

CITY           SKY/WX    TMP DP  RH WIND       PRES   REMARKS
BULLHEAD CITY  SUNNY     72  37  28 S6        29.76R
KINGMAN        SUNNY     71  35  26 SW24G35   29.87R
$$

AZZ004>008-015-016-018-201700-
NORTH CENTRAL ARIZONA

CITY           SKY/WX    TMP DP  RH WIND       PRES   REMARKS
GRAND CANYON   SUNNY     57  34  41 SW20G30   29.97S
WILLIAMS       SUNNY     59  32  36 S22G32    29.99R
PRESCOTT       MOSUNNY   67  31  26 S12       29.94S
FLAGSTAFF      SUNNY     55  32  41 SW21G26   30.02S
PAYSON           N/A     64  34  32 S8        30.02F
PAGE           SUNNY     68  33  27 S17       29.78F
$$

AZZ009>014-017-201700-
NORTHEAST ARIZONA

CITY           SKY/WX    TMP DP  RH WIND       PRES   REMARKS
WINSLOW        SUNNY     63  37  38 SE8       29.95F
SAINT JOHNS    SUNNY     57  37  47 CALM      30.01S
WINDOW ROCK    SUNNY     59  35  40 S9        30.04S
SHOW LOW       SUNNY     61  34  36 SW18      30.08S
$$

AZZ540-542>544-546-548-201700-
GREATER PHOENIX AREA

CITY           SKY/WX    TMP DP  RH WIND       PRES   REMARKS
PHOENIX        MOSUNNY   76  41  28 E10       29.81R
BUCKEYE        SUNNY     73  61  64 SE3       29.83R
GLENDALE       MOSUNNY   75  41  29 CALM      29.84R
LUKE AFB       SUNNY     78  43  28 S10       29.81R
DEER VALLEY    SUNNY     75  38  26 SE7       29.83R
SCOTTSDALE     SUNNY     75  36  24 SE7       29.85R
MESA-FALCON    SUNNY     77  37  24 SE9       29.85R
MESA-GATEWAY   MOSUNNY   73  39  29 SE9       29.86R
CHANDLER       SUNNY     77  39  25 SE7       29.84R
$$

AZZ539-553-201700-
SOUTHWEST MARICOPA COUNTY AND PINAL COUNTY

CITY           SKY/WX    TMP DP  RH WIND       PRES   REMARKS
CASA GRANDE    NOT AVBL
GILA BEND      MOSUNNY   79  45  29 SW9       29.83R
$$

AZZ503-504-507>509-201700-
SOUTHEAST ARIZONA

CITY           SKY/WX    TMP DP  RH WIND       PRES   REMARKS
TUCSON         SUNNY     76  38  25 SE5       29.94R
DAVIS-MONTHAN  SUNNY     76  37  25 CALM      29.92R
RYAN FIELD     SUNNY     73  39  29 E6        29.93R
NOGALES        SUNNY     74  38  27 VRB3      30.00R
SIERRA VISTA   SUNNY     73  35  25 S3        30.04S
DOUGLAS        SUNNY     75  37  25 S12       30.02R
SAFFORD        SUNNY     74  45  35 E9        29.95R
$$

AZZ532-201700-
SOUTHWEST ARIZONA

CITY           SKY/WX    TMP DP  RH WIND       PRES   REMARKS
YUMA           MOSUNNY   76  54  46 W28G37    29.82R BLWGDUST
$$

CAZ041-043-047-048-061-525>527-560>570-201700-
SOUTHERN CALIFORNIA

CITY           SKY/WX    TMP DP  RH WIND       PRES   REMARKS
DOWNTOWN L.A.  SUNNY     66  59  78 CALM      29.92S
L.A. AIRPORT   MOSUNNY   66  57  72 W10       29.93R
SAN DIEGO      MOSUNNY   69  59  70 NW14      30.00R
BURBANK        PTSUNNY   63  54  72 SW5       29.93R
ONTARIO        CLOUDY    62  57  83 SW8       29.95R
RIVERSIDE      CLOUDY    63  58  83 NW5       29.96R
PALM SPRINGS   SUNNY     76  52  43 MISG      29.81R
EL CENTRO NAS  MOSUNNY   77  51  40 W29G37    29.85R
IMPERIAL       MOSUNNY   76  54  46 W21G29    29.82R
BLYTHE         SUNNY     70  48  45 CALM      29.80R
NEEDLES        SUNNY     80  40  23 SE10      29.77R
$$

NVZ020-UTZ003-201700-
SOUTHERN NEVADA-UTAH

CITY           SKY/WX    TMP DP  RH WIND       PRES   REMARKS
LAS VEGAS      MOSUNNY   71  39  31 S16G29    29.68F
SALT LAKE CITY MOSUNNY   69  31  24 S28G36    29.59R
$$

NMZ009-TXZ055-201700-
NEW MEXICO-WEST TEXAS

CITY           SKY/WX    TMP DP  RH WIND       PRES   REMARKS
ALBUQUERQUE    CLOUDY    56  49  77 S10       30.04S
EL PASO        PTSUNNY   62  53  72 S7        30.04R
$$


........................KEY........................
SKY/WX - SKY CONDITION/WEATHER
TMP    - TEMPERATURE IN FAHRENHEIT
DP     - DEW POINT IN FAHRENHEIT
RH     - RELATIVE HUMIDITY IN PERCENT
WIND   - DIRECTION AND SPEED IN MILES PER HOUR (MPH)
VRB    - VARIABLE WIND DIRECTION
PRES   - MEAN SEA LEVEL PRESSURE IN INCHES OF MERCURY
         F - FALLING PRESSURE   R - RISING PRESSURE
         S - STEADY PRESSURE
VSB    - VISIBILITY IN MILES
HX     - HEAT INDEX IN FAHRENHEIT
WCI    - WIND CHILL INDEX IN FAHRENHEIT
TC     - TEMPERATURE IN CELSIUS WHICH IS ALSO KNOWN AS
         TEMPERATURE IN CENTIGRADE
AFB    - AIR FORCE BASE
         LUKE AFB IS LUKE AIR FORCE BASE
         DAVIS-MONTHAN IS DAVIS-MONTHAN AIR FORCE BASE
NAS    - NAVAL AIR STATION
         EL CENTRO NAS IS EL CENTRO NAVAL AIR STATION
N/A    - NOT AVAILABLE





USA.gov is the U.S. government's official web portal to all federal, state and local government web resources and services.